Date_Time,Julian_Date,Latitude,Longitude,Instrument_Depth,U,V,Speed,Direction
(yyyy-mm-dd hh:mn:ss UTC),(JD),(+ deg. North),(+ deg. East),(m),(cm/s),(cm/s),(cm/s),(deg True)
1982-06-14 18:00:00 UTC,2445135.250000,28.7317,-95.2428,0109,13.40,10.47,17.0000,52.0000
1982-06-14 18:30:00 UTC,2445135.270833,28.7317,-95.2428,0109,12.83,11.15,17.0000,49.0000
1982-06-14 19:00:00 UTC,2445135.291667,28.7317,-95.2428,0109,13.99,11.33,18.0000,51.0000
1982-06-14 19:30:00 UTC,2445135.312500,28.7317,-95.2428,0109,15.26,9.54,18.0000,58.0000
1982-06-14 20:00:00 UTC,2445135.333333,28.7317,-95.2428,0109,16.62,9.21,19.0000,61.0000
1982-06-14 20:30:00 UTC,2445135.354167,28.7317,-95.2428,0109,18.54,9.86,21.0000,62.0000
1982-06-14 21:00:00 UTC,2445135.375000,28.7317,-95.2428,0109,18.71,9.53,21.0000,63.0000
1982-06-14 21:30:00 UTC,2445135.395833,28.7317,-95.2428,0109,19.03,8.87,21.0000,65.0000
1982-06-14 22:00:00 UTC,2445135.416667,28.7317,-95.2428,0109,19.33,8.21,21.0000,67.0000
1982-06-14 22:30:00 UTC,2445135.437500,28.7317,-95.2428,0109,19.33,8.21,21.0000,67.0000
1982-06-14 23:00:00 UTC,2445135.458333,28.7317,-95.2428,0109,19.61,7.53,21.0000,69.0000
1982-06-14 23:30:00 UTC,2445135.479167,28.7317,-95.2428,0109,21.04,6.43,22.0000,73.0000
1982-06-15 00:00:00 UTC,2445135.500000,28.7317,-95.2428,0109,21.35,5.32,22.0000,76.0000
1982-06-15 00:30:00 UTC,2445135.520833,28.7317,-95.2428,0109,20.46,4.72,21.0000,77.0000
1982-06-15 01:00:00 UTC,2445135.541667,28.7317,-95.2428,0109,19.63,3.82,20.0000,79.0000
1982-06-15 01:30:00 UTC,2445135.562500,28.7317,-95.2428,0109,19.75,3.13,20.0000,81.0000
1982-06-15 02:00:00 UTC,2445135.583333,28.7317,-95.2428,0109,18.86,2.32,19.0000,83.0000
1982-06-15 02:30:00 UTC,2445135.604167,28.7317,-95.2428,0109,16.96,1.19,17.0000,86.0000
1982-06-15 03:00:00 UTC,2445135.625000,28.7317,-95.2428,0109,14.00,-0.24,14.0000,91.0000
1982-06-15 03:30:00 UTC,2445135.645833,28.7317,-95.2428,0109,11.91,-1.46,12.0000,97.0000
1982-06-15 04:00:00 UTC,2445135.666667,28.7317,-95.2428,0109,10.72,-2.47,11.0000,103.0000
1982-06-15 04:30:00 UTC,2445135.687500,28.7317,-95.2428,0109,9.51,-3.09,10.0000,108.0000
1982-06-15 05:00:00 UTC,2445135.708333,28.7317,-95.2428,0109,8.02,-4.09,9.0000,117.0000
1982-06-15 05:30:00 UTC,2445135.729167,28.7317,-95.2428,0109,6.47,-4.70,8.0000,126.0000
1982-06-15 06:00:00 UTC,2445135.750000,28.7317,-95.2428,0109,5.95,-5.35,8.0000,132.0000
1982-06-15 06:30:00 UTC,2445135.770833,28.7317,-95.2428,0109,5.14,-6.13,8.0000,140.0000
1982-06-15 07:00:00 UTC,2445135.791667,28.7317,-95.2428,0109,2.96,-6.34,7.0000,155.0000
1982-06-15 07:30:00 UTC,2445135.812500,28.7317,-95.2428,0109,1.65,-5.77,6.0000,164.0000
1982-06-15 08:00:00 UTC,2445135.833333,28.7317,-95.2428,0109,2.15,-5.60,6.0000,159.0000
1982-06-15 08:30:00 UTC,2445135.854167,28.7317,-95.2428,0109,2.34,-5.52,6.0000,157.0000
1982-06-15 09:00:00 UTC,2445135.875000,28.7317,-95.2428,0109,1.95,-5.67,6.0000,161.0000
1982-06-15 09:30:00 UTC,2445135.895833,28.7317,-95.2428,0109,0.70,-4.95,5.0000,172.0000
1982-06-15 10:00:00 UTC,2445135.916667,28.7317,-95.2428,0109,-0.97,-3.88,4.0000,194.0000
1982-06-15 10:30:00 UTC,2445135.937500,28.7317,-95.2428,0109,-2.62,-3.02,4.0000,221.0000
1982-06-15 11:00:00 UTC,2445135.958333,28.7317,-95.2428,0109,-2.46,-1.72,3.0000,235.0000
1982-06-15 11:30:00 UTC,2445135.979167,28.7317,-95.2428,0109,-1.85,-2.36,3.0000,218.0000
1982-06-15 12:00:00 UTC,2445136.000000,28.7317,-95.2428,0109,-0.83,-2.88,3.0000,196.0000
1982-06-15 12:30:00 UTC,2445136.020833,28.7317,-95.2428,0109,-1.53,-1.29,2.0000,230.0000
1982-06-15 13:00:00 UTC,2445136.041667,28.7317,-95.2428,0109,-2.08,2.16,3.0000,316.0000
1982-06-15 13:30:00 UTC,2445136.062500,28.7317,-95.2428,0109,-2.19,4.49,5.0000,334.0000
1982-06-15 14:00:00 UTC,2445136.083333,28.7317,-95.2428,0109,-2.03,4.57,5.0000,336.0000
1982-06-15 14:30:00 UTC,2445136.104167,28.7317,-95.2428,0109,-2.25,5.56,6.0000,338.0000
1982-06-15 15:00:00 UTC,2445136.125000,28.7317,-95.2428,0109,-1.46,6.85,7.0000,348.0000
1982-06-15 15:30:00 UTC,2445136.145833,28.7317,-95.2428,0109,0.37,6.99,7.0000,3.0000
1982-06-15 16:00:00 UTC,2445136.166667,28.7317,-95.2428,0109,2.47,7.61,8.0000,18.0000
1982-06-15 16:30:00 UTC,2445136.187500,28.7317,-95.2428,0109,4.36,7.87,9.0000,29.0000
1982-06-15 17:00:00 UTC,2445136.208333,28.7317,-95.2428,0109,5.95,5.35,8.0000,48.0000
1982-06-15 17:30:00 UTC,2445136.229167,28.7317,-95.2428,0109,7.92,1.11,8.0000,82.0000
1982-06-15 18:00:00 UTC,2445136.250000,28.7317,-95.2428,0109,8.56,-2.78,9.0000,108.0000
1982-06-15 18:30:00 UTC,2445136.270833,28.7317,-95.2428,0109,8.83,-4.69,10.0000,118.0000
1982-06-15 19:00:00 UTC,2445136.291667,28.7317,-95.2428,0109,9.46,-7.39,12.0000,128.0000
1982-06-15 19:30:00 UTC,2445136.312500,28.7317,-95.2428,0109,8.53,-9.81,13.0000,139.0000
1982-06-15 20:00:00 UTC,2445136.333333,28.7317,-95.2428,0109,7.64,-10.52,13.0000,144.0000
1982-06-15 20:30:00 UTC,2445136.354167,28.7317,-95.2428,0109,6.31,-9.01,11.0000,145.0000
1982-06-15 21:00:00 UTC,2445136.375000,28.7317,-95.2428,0109,5.35,-5.95,8.0000,138.0000
1982-06-15 21:30:00 UTC,2445136.395833,28.7317,-95.2428,0109,5.14,-3.09,6.0000,121.0000
1982-06-15 22:00:00 UTC,2445136.416667,28.7317,-95.2428,0109,4.67,-1.79,5.0000,111.0000
1982-06-15 22:30:00 UTC,2445136.437500,28.7317,-95.2428,0109,4.83,-1.29,5.0000,105.0000
1982-06-15 23:00:00 UTC,2445136.458333,28.7317,-95.2428,0109,5.00,-0.09,5.0000,91.0000
1982-06-15 23:30:00 UTC,2445136.479167,28.7317,-95.2428,0109,4.85,1.21,5.0000,76.0000
1982-06-16 00:00:00 UTC,2445136.500000,28.7317,-95.2428,0109,4.83,1.29,5.0000,75.0000
1982-06-16 00:30:00 UTC,2445136.520833,28.7317,-95.2428,0109,3.91,0.83,4.0000,78.0000
1982-06-16 01:00:00 UTC,2445136.541667,28.7317,-95.2428,0109,2.62,3.02,4.0000,41.0000
1982-06-16 01:30:00 UTC,2445136.562500,28.7317,-95.2428,0109,0.52,4.97,5.0000,6.0000
1982-06-16 02:00:00 UTC,2445136.583333,28.7317,-95.2428,0109,0.31,5.99,6.0000,3.0000
1982-06-16 02:30:00 UTC,2445136.604167,28.7317,-95.2428,0109,1.25,5.87,6.0000,12.0000
1982-06-16 03:00:00 UTC,2445136.625000,28.7317,-95.2428,0109,1.22,6.89,7.0000,10.0000
1982-06-16 03:30:00 UTC,2445136.645833,28.7317,-95.2428,0109,0.70,7.97,8.0000,5.0000
1982-06-16 04:00:00 UTC,2445136.666667,28.7317,-95.2428,0109,1.56,8.86,9.0000,10.0000
1982-06-16 04:30:00 UTC,2445136.687500,28.7317,-95.2428,0109,2.59,9.66,10.0000,15.0000
1982-06-16 05:00:00 UTC,2445136.708333,28.7317,-95.2428,0109,2.76,9.61,10.0000,16.0000
1982-06-16 05:30:00 UTC,2445136.729167,28.7317,-95.2428,0109,3.75,9.27,10.0000,22.0000
1982-06-16 06:00:00 UTC,2445136.750000,28.7317,-95.2428,0109,5.03,7.46,9.0000,34.0000
1982-06-16 06:30:00 UTC,2445136.770833,28.7317,-95.2428,0109,6.43,7.66,10.0000,40.0000
1982-06-16 07:00:00 UTC,2445136.791667,28.7317,-95.2428,0109,6.69,7.43,10.0000,42.0000
1982-06-16 07:30:00 UTC,2445136.812500,28.7317,-95.2428,0109,7.55,6.56,10.0000,49.0000
1982-06-16 08:00:00 UTC,2445136.833333,28.7317,-95.2428,0109,8.28,3.52,9.0000,67.0000
1982-06-16 08:30:00 UTC,2445136.854167,28.7317,-95.2428,0109,8.83,1.72,9.0000,79.0000
1982-06-16 09:00:00 UTC,2445136.875000,28.7317,-95.2428,0109,8.28,3.52,9.0000,67.0000
1982-06-16 09:30:00 UTC,2445136.895833,28.7317,-95.2428,0109,7.99,6.02,10.0000,53.0000
1982-06-16 10:00:00 UTC,2445136.916667,28.7317,-95.2428,0109,10.90,7.08,13.0000,57.0000
1982-06-16 10:30:00 UTC,2445136.937500,28.7317,-95.2428,0109,15.15,7.72,17.0000,63.0000
1982-06-16 11:00:00 UTC,2445136.958333,28.7317,-95.2428,0109,18.71,9.53,21.0000,63.0000
1982-06-16 11:30:00 UTC,2445136.979167,28.7317,-95.2428,0109,21.19,11.27,24.0000,62.0000
1982-06-16 12:00:00 UTC,2445137.000000,28.7317,-95.2428,0109,21.65,12.50,25.0000,60.0000
1982-06-16 12:30:00 UTC,2445137.020833,28.7317,-95.2428,0109,21.65,12.50,25.0000,60.0000
1982-06-16 13:00:00 UTC,2445137.041667,28.7317,-95.2428,0109,21.43,12.88,25.0000,59.0000
1982-06-16 13:30:00 UTC,2445137.062500,28.7317,-95.2428,0109,20.73,13.98,25.0000,56.0000
1982-06-16 14:00:00 UTC,2445137.083333,28.7317,-95.2428,0109,19.17,14.44,24.0000,53.0000
1982-06-16 14:30:00 UTC,2445137.104167,28.7317,-95.2428,0109,17.36,15.09,23.0000,49.0000
1982-06-16 15:00:00 UTC,2445137.125000,28.7317,-95.2428,0109,12.86,15.32,20.0000,40.0000
1982-06-16 15:30:00 UTC,2445137.145833,28.7317,-95.2428,0109,9.50,16.45,19.0000,30.0000
1982-06-16 16:00:00 UTC,2445137.166667,28.7317,-95.2428,0109,8.03,17.22,19.0000,25.0000
1982-06-16 16:30:00 UTC,2445137.187500,28.7317,-95.2428,0109,7.18,19.73,21.0000,20.0000
1982-06-16 17:00:00 UTC,2445137.208333,28.7317,-95.2428,0109,6.06,21.15,22.0000,16.0000
1982-06-16 17:30:00 UTC,2445137.229167,28.7317,-95.2428,0109,6.06,21.15,22.0000,16.0000
1982-06-16 18:00:00 UTC,2445137.250000,28.7317,-95.2428,0109,6.62,23.07,24.0000,16.0000
1982-06-16 18:30:00 UTC,2445137.270833,28.7317,-95.2428,0109,6.05,24.26,25.0000,14.0000
1982-06-16 19:00:00 UTC,2445137.291667,28.7317,-95.2428,0109,4.96,25.52,26.0000,11.0000
1982-06-16 19:30:00 UTC,2445137.312500,28.7317,-95.2428,0109,5.85,25.33,26.0000,13.0000
1982-06-16 20:00:00 UTC,2445137.333333,28.7317,-95.2428,0109,7.17,24.99,26.0000,16.0000
1982-06-16 20:30:00 UTC,2445137.354167,28.7317,-95.2428,0109,7.73,23.78,25.0000,18.0000
1982-06-16 21:00:00 UTC,2445137.375000,28.7317,-95.2428,0109,8.55,23.49,25.0000,20.0000
1982-06-16 21:30:00 UTC,2445137.395833,28.7317,-95.2428,0109,9.77,23.01,25.0000,23.0000
1982-06-16 22:00:00 UTC,2445137.416667,28.7317,-95.2428,0109,10.14,21.75,24.0000,25.0000
1982-06-16 22:30:00 UTC,2445137.437500,28.7317,-95.2428,0109,10.33,19.42,22.0000,28.0000
1982-06-16 23:00:00 UTC,2445137.458333,28.7317,-95.2428,0109,11.44,17.61,21.0000,33.0000
1982-06-16 23:30:00 UTC,2445137.479167,28.7317,-95.2428,0109,12.93,16.55,21.0000,38.0000
1982-06-17 00:00:00 UTC,2445137.500000,28.7317,-95.2428,0109,14.78,17.62,23.0000,40.0000
1982-06-17 00:30:00 UTC,2445137.520833,28.7317,-95.2428,0109,16.40,18.87,25.0000,41.0000
1982-06-17 01:00:00 UTC,2445137.541667,28.7317,-95.2428,0109,17.68,17.68,25.0000,45.0000
1982-06-17 01:30:00 UTC,2445137.562500,28.7317,-95.2428,0109,17.87,14.47,23.0000,51.0000
1982-06-17 02:00:00 UTC,2445137.583333,28.7317,-95.2428,0109,17.34,13.54,22.0000,52.0000
1982-06-17 02:30:00 UTC,2445137.604167,28.7317,-95.2428,0109,15.09,13.12,20.0000,49.0000
1982-06-17 03:00:00 UTC,2445137.625000,28.7317,-95.2428,0109,13.67,13.20,19.0000,46.0000
1982-06-17 03:30:00 UTC,2445137.645833,28.7317,-95.2428,0109,13.58,11.81,18.0000,49.0000
1982-06-17 04:00:00 UTC,2445137.666667,28.7317,-95.2428,0109,13.75,9.99,17.0000,54.0000
1982-06-17 04:30:00 UTC,2445137.687500,28.7317,-95.2428,0109,14.09,9.51,17.0000,56.0000
1982-06-17 05:00:00 UTC,2445137.708333,28.7317,-95.2428,0109,12.29,8.60,15.0000,55.0000
1982-06-17 05:30:00 UTC,2445137.729167,28.7317,-95.2428,0109,9.96,8.36,13.0000,50.0000
1982-06-17 06:00:00 UTC,2445137.750000,28.7317,-95.2428,0109,8.49,8.49,12.0000,45.0000
1982-06-17 06:30:00 UTC,2445137.770833,28.7317,-95.2428,0109,7.43,6.69,10.0000,48.0000
1982-06-17 07:00:00 UTC,2445137.791667,28.7317,-95.2428,0109,6.71,4.36,8.0000,57.0000
1982-06-17 07:30:00 UTC,2445137.812500,28.7317,-95.2428,0109,7.42,3.00,8.0000,68.0000
1982-06-17 08:00:00 UTC,2445137.833333,28.7317,-95.2428,0109,6.85,1.46,7.0000,78.0000
1982-06-17 08:30:00 UTC,2445137.854167,28.7317,-95.2428,0109,5.99,0.31,6.0000,87.0000
1982-06-17 09:00:00 UTC,2445137.875000,28.7317,-95.2428,0109,2.94,-0.57,3.0000,101.0000
1982-06-17 09:30:00 UTC,2445137.895833,28.7317,-95.2428,0109,1.64,-1.15,2.0000,125.0000
1982-06-17 10:00:00 UTC,2445137.916667,28.7317,-95.2428,0109,1.26,-1.55,2.0000,141.0000
1982-06-17 10:30:00 UTC,2445137.937500,28.7317,-95.2428,0109,0.54,-0.84,1.0000,147.0000
1982-06-17 11:00:00 UTC,2445137.958333,28.7317,-95.2428,0109,-0.09,1.00,1.0000,355.0000
1982-06-17 11:30:00 UTC,2445137.979167,28.7317,-95.2428,0109,-0.03,2.00,2.0000,359.0000
1982-06-17 12:00:00 UTC,2445138.000000,28.7317,-95.2428,0109,-0.26,2.99,3.0000,355.0000
1982-06-17 12:30:00 UTC,2445138.020833,28.7317,-95.2428,0109,-1.03,2.82,3.0000,340.0000
1982-06-17 13:00:00 UTC,2445138.041667,28.7317,-95.2428,0109,-1.69,3.63,4.0000,335.0000
1982-06-17 13:30:00 UTC,2445138.062500,28.7317,-95.2428,0109,-1.95,4.60,5.0000,337.0000
1982-06-17 14:00:00 UTC,2445138.083333,28.7317,-95.2428,0109,-2.72,4.19,5.0000,327.0000
1982-06-17 14:30:00 UTC,2445138.104167,28.7317,-95.2428,0109,-3.94,3.08,5.0000,308.0000
1982-06-17 15:00:00 UTC,2445138.125000,28.7317,-95.2428,0109,-3.43,2.06,4.0000,301.0000
1982-06-17 15:30:00 UTC,2445138.145833,28.7317,-95.2428,0109,-2.08,2.16,3.0000,316.0000
1982-06-17 16:00:00 UTC,2445138.166667,28.7317,-95.2428,0109,-1.12,2.78,3.0000,338.0000
1982-06-17 16:30:00 UTC,2445138.187500,28.7317,-95.2428,0109,-1.30,3.78,4.0000,341.0000
1982-06-17 17:00:00 UTC,2445138.208333,28.7317,-95.2428,0109,-0.93,2.85,3.0000,342.0000
1982-06-17 17:30:00 UTC,2445138.229167,28.7317,-95.2428,0109,-1.17,2.76,3.0000,337.0000
1982-06-17 18:00:00 UTC,2445138.250000,28.7317,-95.2428,0109,-1.76,2.43,3.0000,324.0000
1982-06-17 18:30:00 UTC,2445138.270833,28.7317,-95.2428,0109,-1.78,0.91,2.0000,297.0000
1982-06-17 19:00:00 UTC,2445138.291667,28.7317,-95.2428,0109,-2.00,-0.07,2.0000,268.0000
1982-06-17 19:30:00 UTC,2445138.312500,28.7317,-95.2428,0109,-2.67,-1.36,3.0000,243.0000
1982-06-17 20:00:00 UTC,2445138.333333,28.7317,-95.2428,0109,-2.93,-2.73,4.0000,227.0000
1982-06-17 20:30:00 UTC,2445138.354167,28.7317,-95.2428,0109,-2.88,-2.78,4.0000,226.0000
1982-06-17 21:00:00 UTC,2445138.375000,28.7317,-95.2428,0109,-3.32,-2.24,4.0000,236.0000
1982-06-17 21:30:00 UTC,2445138.395833,28.7317,-95.2428,0109,-3.65,-1.63,4.0000,246.0000
1982-06-17 22:00:00 UTC,2445138.416667,28.7317,-95.2428,0109,-3.73,-1.43,4.0000,249.0000
1982-06-17 22:30:00 UTC,2445138.437500,28.7317,-95.2428,0109,-5.67,-1.95,6.0000,251.0000
1982-06-17 23:00:00 UTC,2445138.458333,28.7317,-95.2428,0109,-7.85,-1.53,8.0000,259.0000
1982-06-17 23:30:00 UTC,2445138.479167,28.7317,-95.2428,0109,-7.99,-0.42,8.0000,267.0000
1982-06-18 00:00:00 UTC,2445138.500000,28.7317,-95.2428,0109,-7.99,0.42,8.0000,273.0000
1982-06-18 00:30:00 UTC,2445138.520833,28.7317,-95.2428,0109,-6.97,0.61,7.0000,275.0000
1982-06-18 01:00:00 UTC,2445138.541667,28.7317,-95.2428,0109,-6.95,0.85,7.0000,277.0000
1982-06-18 01:30:00 UTC,2445138.562500,28.7317,-95.2428,0109,-6.89,1.22,7.0000,280.0000
1982-06-18 02:00:00 UTC,2445138.583333,28.7317,-95.2428,0109,-5.89,1.14,6.0000,281.0000
1982-06-18 02:30:00 UTC,2445138.604167,28.7317,-95.2428,0109,-6.85,1.46,7.0000,282.0000
1982-06-18 03:00:00 UTC,2445138.625000,28.7317,-95.2428,0109,-6.69,2.05,7.0000,287.0000
1982-06-18 03:30:00 UTC,2445138.645833,28.7317,-95.2428,0109,-6.29,3.07,7.0000,296.0000
1982-06-18 04:00:00 UTC,2445138.666667,28.7317,-95.2428,0109,-5.94,3.71,7.0000,302.0000
1982-06-18 04:30:00 UTC,2445138.687500,28.7317,-95.2428,0109,-4.05,2.94,5.0000,306.0000
1982-06-18 05:00:00 UTC,2445138.708333,28.7317,-95.2428,0109,-2.57,3.06,4.0000,320.0000
1982-06-18 05:30:00 UTC,2445138.729167,28.7317,-95.2428,0109,-0.42,3.98,4.0000,354.0000
1982-06-18 06:00:00 UTC,2445138.750000,28.7317,-95.2428,0109,1.71,4.70,5.0000,20.0000
1982-06-18 06:30:00 UTC,2445138.770833,28.7317,-95.2428,0109,1.55,2.57,3.0000,31.0000
1982-06-18 07:00:00 UTC,2445138.791667,28.7317,-95.2428,0109,0.77,0.64,1.0000,50.0000
1982-06-18 07:30:00 UTC,2445138.812500,28.7317,-95.2428,0109,-1.09,-1.68,2.0000,213.0000
1982-06-18 08:00:00 UTC,2445138.833333,28.7317,-95.2428,0109,-0.98,-2.84,3.0000,199.0000
1982-06-18 08:30:00 UTC,2445138.854167,28.7317,-95.2428,0109,0.49,-3.97,4.0000,173.0000
1982-06-18 09:00:00 UTC,2445138.875000,28.7317,-95.2428,0109,1.21,-4.85,5.0000,166.0000
1982-06-18 09:30:00 UTC,2445138.895833,28.7317,-95.2428,0109,0.70,-4.95,5.0000,172.0000
1982-06-18 10:00:00 UTC,2445138.916667,28.7317,-95.2428,0109,0.21,-6.00,6.0000,178.0000
1982-06-18 10:30:00 UTC,2445138.937500,28.7317,-95.2428,0109,-0.73,-6.96,7.0000,186.0000
1982-06-18 11:00:00 UTC,2445138.958333,28.7317,-95.2428,0109,-1.80,-7.79,8.0000,193.0000
1982-06-18 11:30:00 UTC,2445138.979167,28.7317,-95.2428,0109,-2.21,-7.69,8.0000,196.0000
1982-06-18 12:00:00 UTC,2445139.000000,28.7317,-95.2428,0109,-2.34,-7.65,8.0000,197.0000
1982-06-18 12:30:00 UTC,2445139.020833,28.7317,-95.2428,0109,-2.28,-6.62,7.0000,199.0000
1982-06-18 13:00:00 UTC,2445139.041667,28.7317,-95.2428,0109,-2.62,-6.49,7.0000,202.0000
1982-06-18 13:30:00 UTC,2445139.062500,28.7317,-95.2428,0109,-2.85,-6.39,7.0000,204.0000
1982-06-18 14:00:00 UTC,2445139.083333,28.7317,-95.2428,0109,-2.82,-5.30,6.0000,208.0000
1982-06-18 14:30:00 UTC,2445139.104167,28.7317,-95.2428,0109,-3.53,-4.85,6.0000,216.0000
1982-06-18 15:00:00 UTC,2445139.125000,28.7317,-95.2428,0109,-4.32,-4.17,6.0000,226.0000
1982-06-18 15:30:00 UTC,2445139.145833,28.7317,-95.2428,0109,-4.05,-2.94,5.0000,234.0000
1982-06-18 16:00:00 UTC,2445139.166667,28.7317,-95.2428,0109,-3.94,-3.08,5.0000,232.0000
1982-06-18 16:30:00 UTC,2445139.187500,28.7317,-95.2428,0109,-3.77,-3.28,5.0000,229.0000
1982-06-18 17:00:00 UTC,2445139.208333,28.7317,-95.2428,0109,-4.19,-2.72,5.0000,237.0000
1982-06-18 17:30:00 UTC,2445139.229167,28.7317,-95.2428,0109,-4.46,-2.27,5.0000,243.0000
1982-06-18 18:00:00 UTC,2445139.250000,28.7317,-95.2428,0109,-4.97,-3.36,6.0000,236.0000
1982-06-18 18:30:00 UTC,2445139.270833,28.7317,-95.2428,0109,-5.20,-4.68,7.0000,228.0000
1982-06-18 19:00:00 UTC,2445139.291667,28.7317,-95.2428,0109,-5.56,-5.75,8.0000,224.0000
1982-06-18 19:30:00 UTC,2445139.312500,28.7317,-95.2428,0109,-6.02,-6.69,9.0000,222.0000
1982-06-18 20:00:00 UTC,2445139.333333,28.7317,-95.2428,0109,-6.56,-7.55,10.0000,221.0000
1982-06-18 20:30:00 UTC,2445139.354167,28.7317,-95.2428,0109,-6.92,-8.55,11.0000,219.0000
1982-06-18 21:00:00 UTC,2445139.375000,28.7317,-95.2428,0109,-6.15,-9.12,11.0000,214.0000
1982-06-18 21:30:00 UTC,2445139.395833,28.7317,-95.2428,0109,-4.99,-9.80,11.0000,207.0000
1982-06-18 22:00:00 UTC,2445139.416667,28.7317,-95.2428,0109,-5.50,-9.53,11.0000,210.0000
1982-06-18 22:30:00 UTC,2445139.437500,28.7317,-95.2428,0109,-6.56,-7.55,10.0000,221.0000
1982-06-18 23:00:00 UTC,2445139.458333,28.7317,-95.2428,0109,-7.19,-6.95,10.0000,226.0000
1982-06-18 23:30:00 UTC,2445139.479167,28.7317,-95.2428,0109,-6.36,-6.36,9.0000,225.0000
1982-06-19 00:00:00 UTC,2445139.500000,28.7317,-95.2428,0109,-5.95,-5.35,8.0000,228.0000
1982-06-19 00:30:00 UTC,2445139.520833,28.7317,-95.2428,0109,-6.04,-5.25,8.0000,229.0000
1982-06-19 01:00:00 UTC,2445139.541667,28.7317,-95.2428,0109,-5.12,-4.77,7.0000,227.0000
1982-06-19 01:30:00 UTC,2445139.562500,28.7317,-95.2428,0109,-3.66,-3.41,5.0000,227.0000
1982-06-19 02:00:00 UTC,2445139.583333,28.7317,-95.2428,0109,-2.73,-2.93,4.0000,223.0000
1982-06-19 02:30:00 UTC,2445139.604167,28.7317,-95.2428,0109,-1.08,-2.80,3.0000,201.0000
1982-06-19 03:00:00 UTC,2445139.625000,28.7317,-95.2428,0109,-0.21,-2.99,3.0000,184.0000
1982-06-19 03:30:00 UTC,2445139.645833,28.7317,-95.2428,0109,-0.42,-2.97,3.0000,188.0000
1982-06-19 04:00:00 UTC,2445139.666667,28.7317,-95.2428,0109,-1.36,-2.67,3.0000,207.0000
1982-06-19 04:30:00 UTC,2445139.687500,28.7317,-95.2428,0109,-3.11,-2.52,4.0000,231.0000
1982-06-19 05:00:00 UTC,2445139.708333,28.7317,-95.2428,0109,-4.46,-2.27,5.0000,243.0000
1982-06-19 05:30:00 UTC,2445139.729167,28.7317,-95.2428,0109,-4.10,-2.87,5.0000,235.0000
1982-06-19 06:00:00 UTC,2445139.750000,28.7317,-95.2428,0109,-3.08,-3.94,5.0000,218.0000
1982-06-19 06:30:00 UTC,2445139.770833,28.7317,-95.2428,0109,-2.35,-4.41,5.0000,208.0000
1982-06-19 07:00:00 UTC,2445139.791667,28.7317,-95.2428,0109,-3.00,-5.20,6.0000,210.0000
1982-06-19 07:30:00 UTC,2445139.812500,28.7317,-95.2428,0109,-4.00,-6.93,8.0000,210.0000
1982-06-19 08:00:00 UTC,2445139.833333,28.7317,-95.2428,0109,-4.23,-9.06,10.0000,205.0000
1982-06-19 08:30:00 UTC,2445139.854167,28.7317,-95.2428,0109,-4.65,-9.97,11.0000,205.0000
1982-06-19 09:00:00 UTC,2445139.875000,28.7317,-95.2428,0109,-5.82,-10.50,12.0000,209.0000
1982-06-19 09:30:00 UTC,2445139.895833,28.7317,-95.2428,0109,-7.27,-10.78,13.0000,214.0000
1982-06-19 10:00:00 UTC,2445139.916667,28.7317,-95.2428,0109,-8.00,-10.24,13.0000,218.0000
1982-06-19 10:30:00 UTC,2445139.937500,28.7317,-95.2428,0109,-9.73,-10.07,14.0000,224.0000
1982-06-19 11:00:00 UTC,2445139.958333,28.7317,-95.2428,0109,-11.15,-10.04,15.0000,228.0000
1982-06-19 11:30:00 UTC,2445139.979167,28.7317,-95.2428,0109,-11.66,-9.44,15.0000,231.0000
1982-06-19 12:00:00 UTC,2445140.000000,28.7317,-95.2428,0109,-11.61,-7.83,14.0000,236.0000
1982-06-19 12:30:00 UTC,2445140.020833,28.7317,-95.2428,0109,-11.58,-5.90,13.0000,243.0000
1982-06-19 13:00:00 UTC,2445140.041667,28.7317,-95.2428,0109,-11.28,-4.10,12.0000,250.0000
1982-06-19 13:30:00 UTC,2445140.062500,28.7317,-95.2428,0109,-10.67,-2.66,11.0000,256.0000
1982-06-19 14:00:00 UTC,2445140.083333,28.7317,-95.2428,0109,-8.91,-1.25,9.0000,262.0000
1982-06-19 14:30:00 UTC,2445140.104167,28.7317,-95.2428,0109,-7.00,-0.00,7.0000,270.0000
1982-06-19 15:00:00 UTC,2445140.125000,28.7317,-95.2428,0109,-5.94,0.84,6.0000,278.0000
1982-06-19 15:30:00 UTC,2445140.145833,28.7317,-95.2428,0109,-4.76,1.55,5.0000,288.0000
1982-06-19 16:00:00 UTC,2445140.166667,28.7317,-95.2428,0109,-2.65,1.41,3.0000,298.0000
1982-06-19 16:30:00 UTC,2445140.187500,28.7317,-95.2428,0109,-1.66,1.12,2.0000,304.0000
1982-06-19 17:00:00 UTC,2445140.208333,28.7317,-95.2428,0109,-1.60,1.20,2.0000,307.0000
1982-06-19 17:30:00 UTC,2445140.229167,28.7317,-95.2428,0109,-0.86,0.52,1.0000,301.0000
1982-06-19 18:00:00 UTC,2445140.250000,28.7317,-95.2428,0109,-1.51,-1.31,2.0000,229.0000
1982-06-19 18:30:00 UTC,2445140.270833,28.7317,-95.2428,0109,-0.28,-3.99,4.0000,184.0000
1982-06-19 19:00:00 UTC,2445140.291667,28.7317,-95.2428,0109,0.73,-5.96,6.0000,173.0000
1982-06-19 19:30:00 UTC,2445140.312500,28.7317,-95.2428,0109,0.49,-6.98,7.0000,176.0000
1982-06-19 20:00:00 UTC,2445140.333333,28.7317,-95.2428,0109,-0.35,-4.99,5.0000,184.0000
1982-06-19 20:30:00 UTC,2445140.354167,28.7317,-95.2428,0109,-1.21,-4.85,5.0000,194.0000
1982-06-19 21:00:00 UTC,2445140.375000,28.7317,-95.2428,0109,-1.95,-5.67,6.0000,199.0000
1982-06-19 21:30:00 UTC,2445140.395833,28.7317,-95.2428,0109,-2.51,-6.54,7.0000,201.0000
1982-06-19 22:00:00 UTC,2445140.416667,28.7317,-95.2428,0109,-2.93,-8.51,9.0000,199.0000
1982-06-19 22:30:00 UTC,2445140.437500,28.7317,-95.2428,0109,-4.09,-13.39,14.0000,197.0000
1982-06-19 23:00:00 UTC,2445140.458333,28.7317,-95.2428,0109,-6.09,-15.87,17.0000,201.0000
1982-06-19 23:30:00 UTC,2445140.479167,28.7317,-95.2428,0109,-8.63,-16.93,19.0000,207.0000
1982-06-20 00:00:00 UTC,2445140.500000,28.7317,-95.2428,0109,-10.82,-18.00,21.0000,211.0000
1982-06-20 00:30:00 UTC,2445140.520833,28.7317,-95.2428,0109,-11.18,-16.58,20.0000,214.0000
1982-06-20 01:00:00 UTC,2445140.541667,28.7317,-95.2428,0109,-9.99,-13.75,17.0000,216.0000
1982-06-20 01:30:00 UTC,2445140.562500,28.7317,-95.2428,0109,-10.42,-10.79,15.0000,224.0000
1982-06-20 02:00:00 UTC,2445140.583333,28.7317,-95.2428,0109,-10.38,-7.82,13.0000,233.0000
1982-06-20 02:30:00 UTC,2445140.604167,28.7317,-95.2428,0109,-9.62,-5.33,11.0000,241.0000
1982-06-20 03:00:00 UTC,2445140.625000,28.7317,-95.2428,0109,-9.21,-3.91,10.0000,247.0000
1982-06-20 03:30:00 UTC,2445140.645833,28.7317,-95.2428,0109,-8.51,-2.93,9.0000,251.0000
1982-06-20 04:00:00 UTC,2445140.666667,28.7317,-95.2428,0109,-8.65,-2.48,9.0000,254.0000
1982-06-20 04:30:00 UTC,2445140.687500,28.7317,-95.2428,0109,-9.70,-2.42,10.0000,256.0000
1982-06-20 05:00:00 UTC,2445140.708333,28.7317,-95.2428,0109,-8.77,-2.02,9.0000,257.0000
1982-06-20 05:30:00 UTC,2445140.729167,28.7317,-95.2428,0109,-9.90,-1.39,10.0000,262.0000
1982-06-20 06:00:00 UTC,2445140.750000,28.7317,-95.2428,0109,-10.99,0.38,11.0000,272.0000
1982-06-20 06:30:00 UTC,2445140.770833,28.7317,-95.2428,0109,-10.72,2.47,11.0000,283.0000
1982-06-20 07:00:00 UTC,2445140.791667,28.7317,-95.2428,0109,-9.97,4.65,11.0000,295.0000
1982-06-20 07:30:00 UTC,2445140.812500,28.7317,-95.2428,0109,-7.88,6.16,10.0000,308.0000
1982-06-20 08:00:00 UTC,2445140.833333,28.7317,-95.2428,0109,-6.56,7.55,10.0000,319.0000